Location: *
(53.4003°S, 165.3236°W)
Time: 03:11:46
(UTC+00:00)

ADEOS II - Pass Details

Date: 11 December 2023
Orbit: 796 x 799 km, 98.7° (Epoch: 24 February)

Event Time Altitude Azimuth Distance (km) Brightness Sun altitude
Exits shadow 13:25:02 - 326° (NW) 2,515 4.0 -6.9°
Reaches altitude 10° 13:25:27 10° 323° (NW) 2,386 3.9 -6.9°
Maximum altitude 13:29:37 23° 270° (W) 1,657 3.4 -6.5°
Drops below altitude 10° 13:33:49 10° 218° (SW) 2,409 4.8 -6.2°
Sets 13:36:40 0° 203° (SSW) 3,347 5.8 -5.9°
